BEL4SF LFLL-EBBR

Flight info

Callsign BEL4SF
Flight time 1h 0m
Altitude 32000
Route MABES Z32 MOREG L47 ARBOS DCT PENDU DCT IXILU DCT GIVOR DCT SORAL DCT IBERA N853 DIK Y37 BATTY
Aircraft A320/M-SDE3FGHIRWY/LB1

Departure

Time 2026-05-07 18:15
Airport Lyon Saint-Exupéry Airport (LFLL)

Arrival

Time 2026-05-07 19:15
Airport Brussels Airport (EBBR)
Time Latitude Longitude Altitude Speed Heading
2026-05-07 17:31 45.71834 5.08043 797 ft 0 kts 297°
2026-05-07 18:07 45.71833 5.08045 797 ft 2 kts 297°
2026-05-07 18:07 45.71821 5.08078 796 ft 4 kts 297°
2026-05-07 18:07 45.71809 5.08112 804 ft 4 kts 292°
2026-05-07 18:07 45.71802 5.08147 797 ft 4 kts 263°
2026-05-07 18:08 45.71807 5.08166 797 ft 0 kts 201°
2026-05-07 18:11 45.71793 5.08158 797 ft 8 kts 205°
2026-05-07 18:11 45.71736 5.08117 798 ft 8 kts 185°
2026-05-07 18:12 45.71699 5.08147 799 ft 4 kts 128°
2026-05-07 18:12 45.71688 5.08182 800 ft 9 kts 107°
2026-05-07 18:12 45.71676 5.08295 800 ft 11 kts 88°
2026-05-07 18:12 45.71685 5.08435 801 ft 15 kts 86°
2026-05-07 18:13 45.71635 5.08501 803 ft 10 kts 174°
2026-05-07 18:13 45.71597 5.08552 804 ft 6 kts 100°
2026-05-07 18:13 45.71600 5.08623 806 ft 7 kts 84°
2026-05-07 18:13 45.71604 5.08690 807 ft 6 kts 84°
2026-05-07 18:14 45.71610 5.08775 810 ft 13 kts 84°
2026-05-07 18:14 45.71619 5.08909 814 ft 10 kts 83°
2026-05-07 18:14 45.71660 5.08962 815 ft 8 kts 358°
2026-05-07 18:14 45.71925 5.08930 811 ft 76 kts 355°
2026-05-07 18:15 45.72686 5.08838 791 ft 140 kts 355°
2026-05-07 18:15 45.73750 5.08705 1139 ft 160 kts 355°
2026-05-07 18:15 45.74880 5.08622 1859 ft 165 kts 359°
2026-05-07 18:15 45.76033 5.08546 2647 ft 167 kts 356°
2026-05-07 18:16 45.77249 5.08385 3131 ft 187 kts 356°
2026-05-07 18:16 45.78627 5.08195 3482 ft 212 kts 356°
2026-05-07 18:16 45.80170 5.07984 4033 ft 231 kts 355°
2026-05-07 18:16 45.81800 5.07765 4864 ft 241 kts 355°
2026-05-07 18:17 45.83550 5.07534 5414 ft 262 kts 354°
2026-05-07 18:17 45.85401 5.07297 6266 ft 270 kts 354°
2026-05-07 18:17 45.87301 5.07058 6839 ft 278 kts 354°
2026-05-07 18:17 45.89244 5.06813 7709 ft 282 kts 353°
2026-05-07 18:18 45.91214 5.06568 8606 ft 287 kts 354°
2026-05-07 18:18 45.93227 5.06314 9502 ft 292 kts 353°
2026-05-07 18:18 45.95267 5.05972 10257 ft 302 kts 351°
2026-05-07 18:18 45.97431 5.05543 10576 ft 326 kts 350°
2026-05-07 18:19 45.99742 5.05059 11004 ft 343 kts 351°
2026-05-07 18:19 46.02154 5.05060 11720 ft 352 kts
2026-05-07 18:19 46.04483 5.06207 12514 ft 357 kts 24°
2026-05-07 18:19 46.06748 5.07729 13359 ft 361 kts 25°
2026-05-07 18:20 46.09020 5.09284 14137 ft 364 kts 25°
2026-05-07 18:20 46.11316 5.10866 14838 ft 367 kts 25°
2026-05-07 18:20 46.13636 5.12468 15546 ft 371 kts 25°
2026-05-07 18:20 46.15972 5.14078 16247 ft 374 kts 24°
2026-05-07 18:21 46.18342 5.15709 16931 ft 378 kts 24°
2026-05-07 18:21 46.20726 5.17345 17618 ft 382 kts 24°
2026-05-07 18:21 46.23138 5.19000 18285 ft 386 kts 24°
2026-05-07 18:21 46.25566 5.20670 18883 ft 389 kts 23°
2026-05-07 18:22 46.28019 5.22376 19488 ft 393 kts 26°
2026-05-07 18:22 46.29570 5.23750 19879 ft 397 kts 34°
2026-05-07 18:22 46.32244 5.27486 20672 ft 405 kts 52°
2026-05-07 18:22 46.33709 5.30991 21259 ft 410 kts 65°
2026-05-07 18:23 46.34614 5.34924 21842 ft 414 kts 78°
2026-05-07 18:23 46.35003 5.39061 22432 ft 418 kts 84°
2026-05-07 18:23 46.35325 5.43250 22998 ft 421 kts 84°
2026-05-07 18:23 46.35638 5.47482 23540 ft 424 kts 84°
2026-05-07 18:24 46.35945 5.51758 24004 ft 428 kts 84°
2026-05-07 18:24 46.36248 5.56050 24442 ft 431 kts 84°
2026-05-07 18:24 46.36551 5.60380 24869 ft 434 kts 84°
2026-05-07 18:24 46.36853 5.64746 25263 ft 438 kts 84°
2026-05-07 18:25 46.37157 5.69146 25655 ft 441 kts 84°
2026-05-07 18:25 46.37464 5.73577 26046 ft 444 kts 84°
2026-05-07 18:25 46.37773 5.78051 26435 ft 447 kts 84°
2026-05-07 18:25 46.38081 5.82546 26816 ft 450 kts 84°
2026-05-07 18:26 46.38514 5.87050 27192 ft 453 kts 76°
2026-05-07 18:26 46.39620 5.91329 27566 ft 456 kts 60°
2026-05-07 18:26 46.41432 5.95086 27931 ft 456 kts 45°
2026-05-07 18:26 46.43827 5.98066 28322 ft 454 kts 30°
2026-05-07 18:27 46.46636 6.00097 28681 ft 451 kts 15°
2026-05-07 18:27 46.49674 6.01072 29019 ft 446 kts
2026-05-07 18:27 46.52776 6.01248 29325 ft 447 kts 358°
2026-05-07 18:27 46.55891 6.01359 29638 ft 450 kts 357°
2026-05-07 18:28 46.59025 6.01461 29967 ft 452 kts 357°
2026-05-07 18:28 46.62143 6.01562 30251 ft 454 kts 357°
2026-05-07 18:28 46.65343 6.01671 30510 ft 456 kts 357°
2026-05-07 18:28 46.68525 6.01788 30777 ft 458 kts 357°
2026-05-07 18:29 46.71681 6.01910 31029 ft 460 kts 357°
2026-05-07 18:29 46.74886 6.02030 31272 ft 462 kts 357°
2026-05-07 18:29 46.78099 6.02127 31547 ft 462 kts 357°
2026-05-07 18:29 46.81310 6.02208 31888 ft 461 kts 356°
2026-05-07 18:30 46.84513 6.02281 32020 ft 457 kts 356°
2026-05-07 18:30 46.87643 6.02358 32042 ft 446 kts 356°
2026-05-07 18:30 46.90732 6.02435 32043 ft 442 kts 356°
2026-05-07 18:31 46.96870 6.02598 32042 ft 440 kts 356°
2026-05-07 18:31 47.02992 6.02742 32053 ft 440 kts 356°
2026-05-07 18:32 47.09101 6.02839 32046 ft 439 kts 356°
2026-05-07 18:32 47.15211 6.02929 32048 ft 439 kts 356°
2026-05-07 18:33 47.21316 6.03030 32049 ft 439 kts 356°
2026-05-07 18:33 47.27424 6.03133 32066 ft 439 kts 356°
2026-05-07 18:34 47.33523 6.03243 32067 ft 438 kts 356°
2026-05-07 18:34 47.39624 6.03359 32064 ft 438 kts 356°
2026-05-07 18:35 47.45716 6.03496 32073 ft 438 kts 357°
2026-05-07 18:35 47.51803 6.03639 32070 ft 438 kts 357°
2026-05-07 18:36 47.57892 6.03771 32061 ft 437 kts 357°
2026-05-07 18:36 47.63980 6.03900 32053 ft 437 kts 357°
2026-05-07 18:37 47.70061 6.04040 32058 ft 437 kts 357°
2026-05-07 18:37 47.76128 6.04910 32051 ft 442 kts 11°
2026-05-07 18:38 47.82102 6.07155 32063 ft 443 kts 11°
2026-05-07 18:38 47.88075 6.09415 32072 ft 443 kts 11°
2026-05-07 18:39 47.94036 6.11660 32070 ft 442 kts 11°
2026-05-07 18:39 48.00009 6.13919 32069 ft 442 kts 11°
2026-05-07 18:40 48.05949 6.16165 32073 ft 442 kts 11°
2026-05-07 18:40 48.11890 6.18415 32078 ft 442 kts 11°
2026-05-07 18:41 48.17849 6.20681 32071 ft 441 kts 11°
2026-05-07 18:41 48.23799 6.22945 32067 ft 441 kts 11°
2026-05-07 18:42 48.29738 6.25204 32078 ft 441 kts 11°
2026-05-07 18:42 48.35676 6.27478 32074 ft 440 kts 12°
2026-05-07 18:43 48.41610 6.29771 32070 ft 440 kts 12°
2026-05-07 18:43 48.47532 6.32054 32067 ft 439 kts 11°
2026-05-07 18:44 48.53445 6.34334 32074 ft 439 kts 12°
2026-05-07 18:44 48.59362 6.36622 32070 ft 438 kts 12°
2026-05-07 18:45 48.65276 6.38856 32056 ft 437 kts
2026-05-07 18:45 48.71292 6.39692 32059 ft 434 kts
2026-05-07 18:46 48.77319 6.40294 32059 ft 434 kts
2026-05-07 18:46 48.83343 6.40907 32058 ft 434 kts
2026-05-07 18:47 48.89358 6.41524 32058 ft 434 kts
2026-05-07 18:47 48.95380 6.42096 32061 ft 432 kts 356°
2026-05-07 18:48 49.01259 6.40623 32062 ft 427 kts 346°
2026-05-07 18:48 49.07037 6.38772 32063 ft 427 kts 345°
2026-05-07 18:49 49.12860 6.36905 32053 ft 427 kts 345°
2026-05-07 18:49 49.18704 6.35025 32071 ft 427 kts 346°
2026-05-07 18:50 49.24491 6.33155 32070 ft 427 kts 346°
2026-05-07 18:50 49.30305 6.31278 32065 ft 427 kts 346°
2026-05-07 18:51 49.36120 6.29385 32067 ft 427 kts 346°
2026-05-07 18:51 49.41935 6.27497 32064 ft 427 kts 346°
2026-05-07 18:52 49.47736 6.25605 32062 ft 427 kts 345°
2026-05-07 18:52 49.52568 6.24028 32057 ft 427 kts 345°
2026-05-07 18:53 49.58378 6.22123 32063 ft 427 kts 345°
2026-05-07 18:53 49.64186 6.20224 32060 ft 427 kts 345°
2026-05-07 18:54 49.69996 6.18318 32054 ft 427 kts 345°
2026-05-07 18:54 49.75803 6.16399 32057 ft 427 kts 345°
2026-05-07 18:55 49.81607 6.14482 32070 ft 427 kts 345°
2026-05-07 18:55 49.87417 6.12549 32014 ft 428 kts 345°
2026-05-07 18:55 49.90315 6.11553 31752 ft 427 kts 345°
2026-05-07 18:56 49.93217 6.10530 31461 ft 426 kts 345°
2026-05-07 18:56 49.96101 6.09504 30869 ft 423 kts 345°
2026-05-07 18:56 49.98958 6.08483 30264 ft 420 kts 345°
2026-05-07 18:56 50.01797 6.07469 29622 ft 418 kts 345°
2026-05-07 18:57 50.04615 6.06468 29056 ft 413 kts 345°
2026-05-07 18:57 50.07406 6.05481 28478 ft 409 kts 345°
2026-05-07 18:57 50.10161 6.04506 27906 ft 405 kts 345°
2026-05-07 18:57 50.12898 6.03538 27353 ft 401 kts 345°
2026-05-07 18:58 50.15613 6.02579 26798 ft 398 kts 345°
2026-05-07 18:58 50.18305 6.01626 26255 ft 395 kts 345°
2026-05-07 18:58 50.20972 6.00680 25722 ft 392 kts 345°
2026-05-07 18:58 50.23639 5.99727 25207 ft 401 kts 343°
2026-05-07 18:59 50.26282 5.98099 24690 ft 412 kts 327°
2026-05-07 18:59 50.28549 5.95382 24195 ft 413 kts 317°
2026-05-07 18:59 50.30727 5.92445 23700 ft 412 kts 317°
2026-05-07 18:59 50.32887 5.89494 23132 ft 410 kts 317°
2026-05-07 19:00 50.35018 5.86562 22556 ft 407 kts 317°
2026-05-07 19:00 50.37139 5.83642 21988 ft 404 kts 317°
2026-05-07 19:00 50.39237 5.80757 21435 ft 400 kts 317°
2026-05-07 19:00 50.41321 5.77890 20891 ft 397 kts 317°
2026-05-07 19:01 50.43396 5.75041 20357 ft 394 kts 317°
2026-05-07 19:01 50.45452 5.72216 19840 ft 391 kts 317°
2026-05-07 19:01 50.47486 5.69418 19324 ft 389 kts 317°
2026-05-07 19:01 50.49518 5.66625 18816 ft 386 kts 317°
2026-05-07 19:02 50.51531 5.63858 18316 ft 383 kts 317°
2026-05-07 19:02 50.53525 5.61105 17745 ft 381 kts 317°
2026-05-07 19:02 50.55507 5.58362 17184 ft 378 kts 317°
2026-05-07 19:02 50.57474 5.55635 16639 ft 376 kts 317°
2026-05-07 19:03 50.59430 5.52923 16098 ft 373 kts 317°
2026-05-07 19:03 50.61371 5.50233 15571 ft 371 kts 317°
2026-05-07 19:03 50.63301 5.47557 15042 ft 369 kts 317°
2026-05-07 19:03 50.65219 5.44893 14528 ft 365 kts 317°
2026-05-07 19:04 50.67118 5.42251 14014 ft 362 kts 317°
2026-05-07 19:04 50.68992 5.39638 13472 ft 359 kts 317°
2026-05-07 19:04 50.70858 5.37033 12906 ft 356 kts 317°
2026-05-07 19:04 50.72701 5.34458 12362 ft 353 kts 317°
2026-05-07 19:05 50.74500 5.31929 11830 ft 349 kts 317°
2026-05-07 19:05 50.76299 5.29387 11302 ft 346 kts 317°
2026-05-07 19:05 50.78078 5.26857 10780 ft 342 kts 317°
2026-05-07 19:05 50.79831 5.24356 10272 ft 338 kts 317°
2026-05-07 19:06 50.81567 5.21870 9740 ft 335 kts 317°
2026-05-07 19:06 50.84843 5.17159 8861 ft 298 kts 317°
2026-05-07 19:06 50.86329 5.15018 8468 ft 282 kts 317°
2026-05-07 19:07 50.87763 5.12947 7824 ft 277 kts 317°
2026-05-07 19:07 50.89177 5.10900 7146 ft 274 kts 317°
2026-05-07 19:07 50.90568 5.08873 6472 ft 271 kts 317°
2026-05-07 19:07 50.91942 5.06856 5881 ft 265 kts 317°
2026-05-07 19:08 50.93256 5.04905 5452 ft 253 kts 317°
2026-05-07 19:08 50.94503 5.03031 5062 ft 241 kts 317°
2026-05-07 19:08 50.95698 5.01221 4581 ft 236 kts 317°
2026-05-07 19:08 50.96881 4.99419 4187 ft 235 kts 317°
2026-05-07 19:09 50.97918 4.97454 3989 ft 233 kts 298°
2026-05-07 19:09 50.98347 4.94989 3868 ft 234 kts 273°
2026-05-07 19:09 50.98410 4.92402 3729 ft 234 kts 272°
2026-05-07 19:09 50.98465 4.89825 3604 ft 234 kts 272°
2026-05-07 19:10 50.98516 4.87248 3480 ft 233 kts 271°
2026-05-07 19:10 50.98566 4.84675 3350 ft 233 kts 271°
2026-05-07 19:10 50.98614 4.82106 3221 ft 233 kts 271°
2026-05-07 19:10 50.98662 4.79552 3088 ft 228 kts 272°
2026-05-07 19:11 50.98686 4.77099 2955 ft 217 kts 265°
2026-05-07 19:11 50.98343 4.74826 2826 ft 208 kts 246°
2026-05-07 19:11 50.97748 4.72784 2696 ft 200 kts 245°
2026-05-07 19:11 50.97173 4.70813 2566 ft 194 kts 245°
2026-05-07 19:12 50.96617 4.68888 2440 ft 191 kts 245°
2026-05-07 19:12 50.96074 4.67007 2307 ft 188 kts 245°
2026-05-07 19:12 50.95540 4.65152 2158 ft 182 kts 245°
2026-05-07 19:12 50.95030 4.63384 2094 ft 172 kts 245°
2026-05-07 19:13 50.94539 4.61675 2033 ft 169 kts 245°
2026-05-07 19:13 50.94051 4.59983 1830 ft 168 kts 245°
2026-05-07 19:13 50.93577 4.58345 1598 ft 157 kts 245°
2026-05-07 19:13 50.93141 4.56833 1335 ft 147 kts 245°
2026-05-07 19:14 50.92725 4.55394 1056 ft 141 kts 245°
2026-05-07 19:14 50.92322 4.53995 780 ft 138 kts 246°
2026-05-07 19:14 50.91930 4.52615 550 ft 137 kts 245°
2026-05-07 19:14 50.91536 4.51247 363 ft 136 kts 245°
2026-05-07 19:15 50.91139 4.49884 168 ft 136 kts 245°
2026-05-07 19:15 50.90776 4.48627 118 ft 105 kts 245°
2026-05-07 19:15 50.90567 4.47910 120 ft 37 kts 244°
2026-05-07 19:15 50.90441 4.47666 124 ft 22 kts 221°
2026-05-07 19:16 50.90352 4.47563 123 ft 11 kts 213°
2026-05-07 19:16 50.90308 4.47582 118 ft 8 kts 109°
2026-05-07 19:16 50.90317 4.47666 120 ft 8 kts 68°
2026-05-07 19:16 50.90339 4.47742 119 ft 8 kts 65°
2026-05-07 19:17 50.90364 4.47829 121 ft 9 kts 65°
2026-05-07 19:17 50.90388 4.47909 119 ft 7 kts 65°
2026-05-07 19:17 50.90406 4.47980 120 ft 6 kts 79°
2026-05-07 19:17 50.90387 4.48032 116 ft 5 kts 143°
2026-05-07 19:18 50.90356 4.48032 119 ft 4 kts 204°
2026-05-07 19:18 50.90330 4.47987 121 ft 5 kts 226°
2026-05-07 19:18 50.90288 4.48006 118 ft 7 kts 152°
2026-05-07 19:18 50.90265 4.48023 117 ft 3 kts 155°
2026-05-07 19:19 50.90249 4.48034 121 ft 1 kts 156°
2026-05-07 19:19 50.90244 4.48038 121 ft 0 kts 156°